Location: Burtsch�tz
(51.0528°N, 12.1764°E)
Time: 01:12:48
(UTC+00:00)

Aureole 3 - Pass Details

Date: 29 October 2020
Orbit: 382 x 1232 km, 82.5° (Epoch: 23 November)

Event Time Altitude Azimuth Distance (km) Brightness Sun altitude
Rises 17:31:13 0° 201° (SSW) 2,330 6.8 -16.3°
Reaches altitude 10° 17:33:18 10° 207° (SSW) 1,431 5.8 -16.7°
Maximum altitude 17:36:13 48° 283° (WNW) 515 3.6 -17.1°
Drops below altitude 10° 17:39:10 10° 0° (N) 1,435 5.4 -17.6°
Sets 17:41:15 0° 7° (N) 2,337 6.5 -17.9°
